Tracking 35274 objects as of 12-Sep-2026
HD Live streaming from Space Station
objects crossing your sky now

COSMOS 1588 DEB


COSMOS 1588 DEB is no longer on orbit


NORAD ID: 16674
Int'l Code: 1984-083AF
Launch date: August 7, 1984
Source: Commonwealth of Independent States (former USSR) (CIS)
Launch site: TYURATAM MISSILE AND SPACE COMPLEX (TTMTR)
Decay date: 1986-04-20

Note: This is SATELLITE DEBRIS
Your satellite tracking list
Your tracking list is empty




NASA's NSSDC Master Catalog

Two Line Element Set (TLE):
1 16674U 84083AF  86108.98527286  .04699563 +44613-5 +59012-2 0  9991
2 16674 065.0577 060.1017 0017298 218.7722 143.5212 16.06901448002354
Source of the keplerian elements: AFSPC